Location: Homewood
(41.1836°S, 175.9581°E)
Time: 02:50:29
(UTC+00:00)

Cosmos 1745 Rocket - Pass Details

Date: 18 April 2024
Orbit: 951 x 998 km, 83.0° (Epoch: 17 April)

Event Time Altitude Azimuth Distance (km) Brightness Sun altitude
Rises 17:08:47 0° 190° (S) 3,737 7.0 -19.8°
Reaches altitude 10° 17:11:21 10° 192° (SSW) 2,776 6.3 -19.3°
Maximum altitude 17:17:40 70° 274° (W) 1,049 3.9 -18.2°
Drops below altitude 10° 17:23:51 10° 355° (N) 2,709 6.3 -17.0°
Sets 17:26:19 0° 358° (N) 3,641 7.0 -16.5°
